High gust

Not for real navigation. The accuracy of this data is not assured See disclaimer for more information



ICAO NAME COUNTRY WIND Kt GUST Kt VIS m TEMP/DEW C BARO METAR
KMWN Mount Washington NH United States 35 41 9999 13/13 29.92 KMWN 191352Z 28035G41KT 0SM FG VV000 13/13 RMK
KGRY Green Canyon 338 LA United States 8 41 9600 30/24 30.06 KGRY 191435Z AUTO 20008G41KT 070V230 6SM HZ SCT024 30/24 A3006 RMK A01
CYPX Povungnituq Canada 25 37 14400 15/7 29.69 CYPX 191400Z AUTO 09025G37KT 9SM SCT140 SCT250 15/07 A2969 RMK SLP056 DENSITY ALT 300FT
CYPH Inukjuak Airport Supplementary Canada 27 37 14400 19/15 29.49 CYPH 191400Z AUTO 10027G37KT 9SM SCT070 SCT097 19/15 A2949 RMK SLP988 DENSITY ALT 1000FT
SKCC Cucuta / Camilo Daza Colombia 25 36 9999 29/19 29.94 SKCC 191400Z 16025G36KT 9999 FEW020 29/19 A2994

Show more